Date,TemperatureHighF,TemperatureAvgF,TemperatureLowF,DewpointHighF,DewpointAvgF,DewpointLowF,HumidityHigh,HumidityAvg,HumidityLow,PressureMaxIn,PressureMinIn,WindSpeedMaxMPH,WindSpeedAvgMPH,GustSpeedMaxMPH,PrecipitationSumIn
2013-3-1,33,31,26,32,28,22,97,90,80,30.21,30.07,15,4,15,0.00
2013-3-2,27,26,24,23,21,20,90,83,77,30.23,30.18,12,4,12,0.00
2013-3-3,29,26,24,22,20,16,87,75,64,30.24,30.19,24,5,24,0.00
2013-3-4,41,30,19,29,21,16,92,71,45,30.33,30.17,14,2,14,0.00
2013-3-5,36,33,30,33,30,28,97,90,75,30.21,29.74,21,7,21,0.15
2013-3-6,32,29,26,29,27,26,97,92,85,30.39,29.76,16,6,16,0.02
2013-3-7,37,32,29,32,28,25,94,86,74,30.53,30.38,13,4,13,0.10
2013-3-8,39,32,24,28,25,21,88,75,60,30.64,30.53,13,3,13,0.00
2013-3-9,52,41,28,38,32,24,90,72,53,30.55,30.17,19,4,19,0.00
2013-3-10,66,57,48,44,38,35,62,50,34,30.17,29.94,25,7,25,0.00
2013-3-11,57,47,36,51,44,33,98,90,61,29.96,29.67,28,9,28,1.18
2013-3-12,40,34,32,33,30,28,95,83,65,30.17,29.95,20,6,20,0.00
2013-3-13,32,28,25,31,23,19,95,82,67,30.45,30.13,28,10,28,0.00
2013-3-14,36,29,24,24,21,18,82,72,57,30.47,30.30,8,3,8,0.00
2013-3-15,49,38,29,41,34,24,96,84,67,30.32,29.95,14,3,14,0.00
2013-3-16,48,40,32,46,38,31,97,94,89,30.17,29.74,18,5,18,0.08
2013-3-17,36,32,29,31,28,25,93,83,76,30.31,30.16,20,7,20,0.00
2013-3-18,48,38,31,47,36,28,98,94,82,30.18,29.73,23,6,23,0.02
2013-3-19,38,33,26,35,23,18,92,68,44,30.22,29.93,38,10,38,0.03
2013-3-20,33,28,22,21,18,11,78,65,55,30.22,30.10,28,9,28,0.00
2013-3-21,29,23,18,20,16,11,86,73,58,30.18,30.09,21,7,21,0.00
2013-3-22,24,24,24,18,18,17,78,77,76,30.18,30.17,7,2,7,0.00
2013-3-23,46,41,34,28,25,23,76,54,44,30.22,30.07,17,4,17,0.00
2013-3-24,34,31,29,30,28,25,97,88,76,30.07,29.57,26,10,26,0.00
2013-3-25,32,30,28,31,29,27,97,96,95,30.07,29.57,18,7,18,0.08
2013-3-26,38,33,30,31,29,27,96,87,69,30.36,30.07,21,8,21,0.02
2013-3-27,41,34,28,32,28,24,89,76,55,30.44,30.35,24,8,24,0.00
2013-3-28,46,37,29,33,28,24,82,70,54,30.50,30.43,17,5,17,0.00
2013-3-29,52,41,29,36,31,25,88,69,47,30.47,30.35,15,3,15,0.00
2013-3-30,56,46,32,36,32,26,87,60,36,30.39,30.07,12,2,14,0.00
2013-3-31,57,49,44,46,40,33,88,73,51,30.07,29.86,24,5,24,0.02